Year,Month,Day,Hour,Minute,Value (Times are PST for temperature in C)
2009,06,02,00,00,17.00
2009,06,02,00,01,17.00
2009,06,02,00,02,17.00
2009,06,02,00,03,17.00
2009,06,02,00,04,16.90
2009,06,02,00,05,16.90
2009,06,02,00,06,16.90
2009,06,02,00,07,16.90
2009,06,02,00,08,16.90
2009,06,02,00,09,16.90
2009,06,02,00,10,16.90
2009,06,02,00,11,16.90
2009,06,02,00,12,16.90
2009,06,02,00,13,16.80
2009,06,02,00,14,16.80
2009,06,02,00,15,16.80
2009,06,02,00,16,16.80
2009,06,02,00,17,16.70
2009,06,02,00,18,16.70
2009,06,02,00,19,16.70
2009,06,02,00,20,16.70
2009,06,02,00,21,16.70
2009,06,02,00,22,16.70
2009,06,02,00,23,16.70
2009,06,02,00,24,16.70
2009,06,02,00,25,16.60
2009,06,02,00,26,16.60
2009,06,02,00,27,16.60
2009,06,02,00,28,16.60
2009,06,02,00,29,16.60
2009,06,02,00,30,16.60
2009,06,02,00,31,16.60
2009,06,02,00,32,16.60
2009,06,02,00,33,16.60
2009,06,02,00,34,16.60
2009,06,02,00,35,16.50
2009,06,02,00,36,16.50
2009,06,02,00,37,16.50
2009,06,02,00,38,16.50
2009,06,02,00,39,16.40
2009,06,02,00,40,16.40
2009,06,02,00,41,16.40
2009,06,02,00,42,16.40
2009,06,02,00,43,16.40
2009,06,02,00,44,16.30
2009,06,02,00,45,16.30
2009,06,02,00,46,16.30
2009,06,02,00,47,16.20
2009,06,02,00,48,16.20
2009,06,02,00,49,16.20
2009,06,02,00,50,16.20
2009,06,02,00,51,16.20
2009,06,02,00,52,16.20
2009,06,02,00,53,16.20
2009,06,02,00,54,16.20
2009,06,02,00,55,16.20
2009,06,02,00,56,16.20
2009,06,02,00,57,16.10
2009,06,02,00,58,16.10
2009,06,02,00,59,16.10
2009,06,02,01,00,16.10
2009,06,02,01,01,16.10
2009,06,02,01,02,16.10
2009,06,02,01,03,16.10
2009,06,02,01,04,16.10
2009,06,02,01,05,16.10
2009,06,02,01,06,16.10
2009,06,02,01,07,16.10
2009,06,02,01,08,16.10
2009,06,02,01,09,16.10
2009,06,02,01,10,16.00
2009,06,02,01,11,16.00
2009,06,02,01,12,16.00
2009,06,02,01,13,15.90
2009,06,02,01,14,15.90
2009,06,02,01,15,15.90
2009,06,02,01,16,15.90
2009,06,02,01,17,15.90
2009,06,02,01,18,15.90
2009,06,02,01,19,15.90
2009,06,02,01,20,15.90
2009,06,02,01,21,15.90
2009,06,02,01,22,15.90
2009,06,02,01,23,16.00
2009,06,02,01,24,16.00
2009,06,02,01,25,16.00
2009,06,02,01,26,16.10
2009,06,02,01,27,16.10
2009,06,02,01,28,16.10
2009,06,02,01,29,16.10
2009,06,02,01,30,16.10
2009,06,02,01,31,16.10
2009,06,02,01,32,16.00
2009,06,02,01,33,16.00
2009,06,02,01,34,16.00
2009,06,02,01,35,16.00
2009,06,02,01,36,16.00
2009,06,02,01,37,16.00
2009,06,02,01,38,15.90
2009,06,02,01,39,15.90
2009,06,02,01,40,15.90
2009,06,02,01,41,15.90
2009,06,02,01,42,15.80
2009,06,02,01,43,15.80
2009,06,02,01,44,15.80
2009,06,02,01,45,15.80
2009,06,02,01,46,15.80
2009,06,02,01,47,15.80
2009,06,02,01,48,15.80
2009,06,02,01,49,15.70
2009,06,02,01,50,15.70
2009,06,02,01,51,15.70
2009,06,02,01,52,15.60
2009,06,02,01,53,15.60
2009,06,02,01,54,15.60
2009,06,02,01,55,15.60
2009,06,02,01,56,15.60
2009,06,02,01,57,15.50
2009,06,02,01,58,15.50
2009,06,02,01,59,15.50
2009,06,02,02,00,15.40
2009,06,02,02,01,15.40
2009,06,02,02,02,15.40
2009,06,02,02,03,15.30
2009,06,02,02,04,15.30
2009,06,02,02,05,15.30
2009,06,02,02,06,15.20
2009,06,02,02,07,15.20
2009,06,02,02,08,15.20
2009,06,02,02,09,15.10
2009,06,02,02,10,15.10
2009,06,02,02,11,15.00
2009,06,02,02,12,15.00
2009,06,02,02,13,15.00
2009,06,02,02,14,15.00
2009,06,02,02,15,15.00
2009,06,02,02,16,15.00
2009,06,02,02,17,15.00
2009,06,02,02,18,15.00
2009,06,02,02,19,15.00
2009,06,02,02,20,15.00
2009,06,02,02,21,15.00
2009,06,02,02,22,14.90
2009,06,02,02,23,14.90
2009,06,02,02,24,14.90
2009,06,02,02,25,14.80
2009,06,02,02,26,14.80
2009,06,02,02,27,14.70
2009,06,02,02,28,14.70
2009,06,02,02,29,14.60
2009,06,02,02,30,14.60
2009,06,02,02,31,14.60
2009,06,02,02,32,14.50
2009,06,02,02,33,14.50
2009,06,02,02,34,14.50
2009,06,02,02,35,14.40
2009,06,02,02,36,14.40
2009,06,02,02,37,14.40
2009,06,02,02,38,14.40
2009,06,02,02,39,14.40
2009,06,02,02,40,14.40
2009,06,02,02,41,14.40
2009,06,02,02,42,14.40
2009,06,02,02,43,14.40
2009,06,02,02,44,14.30
2009,06,02,02,45,14.30
2009,06,02,02,46,14.30
2009,06,02,02,47,14.30
2009,06,02,02,48,14.30
2009,06,02,02,49,14.30
2009,06,02,02,50,14.30
2009,06,02,02,51,14.20
2009,06,02,02,52,14.20
2009,06,02,02,53,14.20
2009,06,02,02,54,14.20
2009,06,02,02,55,14.20
2009,06,02,02,56,14.10
2009,06,02,02,57,14.10
2009,06,02,02,58,14.10
2009,06,02,02,59,14.10
2009,06,02,03,00,14.10
2009,06,02,03,01,14.20
2009,06,02,03,02,14.20
2009,06,02,03,03,14.20
2009,06,02,03,04,14.20
2009,06,02,03,05,14.30
2009,06,02,03,06,14.30
2009,06,02,03,07,14.40
2009,06,02,03,08,14.40
2009,06,02,03,09,14.40
2009,06,02,03,10,14.40
2009,06,02,03,11,14.40
2009,06,02,03,12,14.40
2009,06,02,03,13,14.40
2009,06,02,03,14,14.40
2009,06,02,03,15,14.50
2009,06,02,03,16,14.50
2009,06,02,03,17,14.50
2009,06,02,03,18,14.40
2009,06,02,03,19,14.40
2009,06,02,03,20,14.40
2009,06,02,03,21,14.40
2009,06,02,03,22,14.40
2009,06,02,03,23,14.40
2009,06,02,03,24,14.40
2009,06,02,03,25,14.40
2009,06,02,03,26,14.40
2009,06,02,03,27,14.40
2009,06,02,03,28,14.30
2009,06,02,03,29,14.30
2009,06,02,03,30,14.30
2009,06,02,03,31,14.30
2009,06,02,03,32,14.30
2009,06,02,03,33,14.30
2009,06,02,03,34,14.30
2009,06,02,03,35,14.20
2009,06,02,03,36,14.20
2009,06,02,03,37,14.20
2009,06,02,03,38,14.20
2009,06,02,03,39,14.10
2009,06,02,03,40,14.10
2009,06,02,03,41,14.10
2009,06,02,03,42,14.10
2009,06,02,03,43,14.10
2009,06,02,03,44,14.10
2009,06,02,03,45,14.10
2009,06,02,03,46,14.10
2009,06,02,03,47,14.10
2009,06,02,03,48,14.10
2009,06,02,03,49,14.00
2009,06,02,03,50,14.00
2009,06,02,03,51,14.00
2009,06,02,03,52,14.00
2009,06,02,03,53,14.00
2009,06,02,03,54,14.00
2009,06,02,03,55,14.00
2009,06,02,03,56,14.00
2009,06,02,03,57,14.00
2009,06,02,03,58,14.00
2009,06,02,03,59,13.90
2009,06,02,04,00,13.90
2009,06,02,04,01,13.90
2009,06,02,04,02,13.90
2009,06,02,04,03,13.90
2009,06,02,04,04,13.90
2009,06,02,04,05,13.90
2009,06,02,04,06,13.90
2009,06,02,04,07,13.90
2009,06,02,04,08,13.80
2009,06,02,04,09,13.80
2009,06,02,04,10,13.80
2009,06,02,04,11,13.80
2009,06,02,04,12,13.80
2009,06,02,04,13,13.80
2009,06,02,04,14,13.70
2009,06,02,04,15,13.70
2009,06,02,04,16,13.70
2009,06,02,04,17,13.70
2009,06,02,04,18,13.70
2009,06,02,04,19,13.60
2009,06,02,04,20,13.60
2009,06,02,04,21,13.60
2009,06,02,04,22,13.50
2009,06,02,04,23,13.50
2009,06,02,04,24,13.40
2009,06,02,04,25,13.40
2009,06,02,04,26,13.40
2009,06,02,04,27,13.40
2009,06,02,04,28,13.40
2009,06,02,04,29,13.40
2009,06,02,04,30,13.40
2009,06,02,04,31,13.40
2009,06,02,04,32,13.40
2009,06,02,04,33,13.40
2009,06,02,04,34,13.50
2009,06,02,04,35,13.50
2009,06,02,04,36,13.50
2009,06,02,04,37,13.50
2009,06,02,04,38,13.60
2009,06,02,04,39,13.60
2009,06,02,04,40,13.60
2009,06,02,04,41,13.60
2009,06,02,04,42,13.60
2009,06,02,04,43,13.60
2009,06,02,04,44,13.60
2009,06,02,04,45,13.60
2009,06,02,04,46,13.50
2009,06,02,04,47,13.50
2009,06,02,04,48,13.50
2009,06,02,04,49,13.50
2009,06,02,04,50,13.50
2009,06,02,04,51,13.50
2009,06,02,04,52,13.50
2009,06,02,04,53,13.50
2009,06,02,04,54,13.50
2009,06,02,04,55,13.40
2009,06,02,04,56,13.40
2009,06,02,04,57,13.40
2009,06,02,04,58,13.40
2009,06,02,04,59,13.40
2009,06,02,05,00,13.40
2009,06,02,05,01,13.40
2009,06,02,05,02,13.40
2009,06,02,05,03,13.40
2009,06,02,05,04,13.40
2009,06,02,05,05,13.50
2009,06,02,05,06,13.50
2009,06,02,05,07,13.50
2009,06,02,05,08,13.50
2009,06,02,05,09,13.50
2009,06,02,05,10,13.40
2009,06,02,05,11,13.40
2009,06,02,05,12,13.40
2009,06,02,05,13,13.40
2009,06,02,05,14,13.40
2009,06,02,05,15,13.40
2009,06,02,05,16,13.40
2009,06,02,05,17,13.40
2009,06,02,05,18,13.40
2009,06,02,05,19,13.40
2009,06,02,05,20,13.30
2009,06,02,05,21,13.30
2009,06,02,05,22,13.30
2009,06,02,05,23,13.30
2009,06,02,05,24,13.40
2009,06,02,05,25,13.30
2009,06,02,05,26,13.30
2009,06,02,05,27,13.40
2009,06,02,05,28,13.40
2009,06,02,05,29,13.30
2009,06,02,05,30,13.30
2009,06,02,05,31,13.40
2009,06,02,05,32,13.40
2009,06,02,05,33,13.40
2009,06,02,05,34,13.40
2009,06,02,05,35,13.50
2009,06,02,05,36,13.50
2009,06,02,05,37,13.60
2009,06,02,05,38,13.60
2009,06,02,05,39,13.60
2009,06,02,05,40,13.70
2009,06,02,05,41,13.70
2009,06,02,05,42,13.70
2009,06,02,05,43,13.80
2009,06,02,05,44,13.80
2009,06,02,05,45,13.80
2009,06,02,05,46,13.80
2009,06,02,05,47,13.80
2009,06,02,05,48,13.80
2009,06,02,05,49,13.80
2009,06,02,05,50,13.80
2009,06,02,05,51,13.80
2009,06,02,05,52,13.80
2009,06,02,05,53,13.80
2009,06,02,05,54,13.80
2009,06,02,05,55,13.80
2009,06,02,05,56,13.80
2009,06,02,05,57,13.80
2009,06,02,05,58,13.80
2009,06,02,05,59,13.80
2009,06,02,06,00,13.80
2009,06,02,06,01,13.80
2009,06,02,06,02,13.80
2009,06,02,06,03,13.80
2009,06,02,06,04,13.80
2009,06,02,06,05,13.80
2009,06,02,06,06,13.80
2009,06,02,06,07,13.80
2009,06,02,06,08,13.80
2009,06,02,06,09,13.80
2009,06,02,06,10,13.80
2009,06,02,06,11,13.80
2009,06,02,06,12,13.80
2009,06,02,06,13,13.80
2009,06,02,06,14,13.80
2009,06,02,06,15,13.80
2009,06,02,06,16,13.80
2009,06,02,06,17,13.90
2009,06,02,06,18,13.90
2009,06,02,06,19,13.90
2009,06,02,06,20,13.90
2009,06,02,06,21,13.90
2009,06,02,06,22,13.90
2009,06,02,06,23,13.90
2009,06,02,06,24,14.00
2009,06,02,06,25,14.00
2009,06,02,06,26,14.10
2009,06,02,06,27,14.10
2009,06,02,06,28,14.20
2009,06,02,06,29,14.20
2009,06,02,06,30,14.30
2009,06,02,06,31,14.30
2009,06,02,06,32,14.40
2009,06,02,06,33,14.40
2009,06,02,06,34,14.40
2009,06,02,06,35,14.50
2009,06,02,06,36,14.50
2009,06,02,06,37,14.60
2009,06,02,06,38,14.60
2009,06,02,06,39,14.60
2009,06,02,06,40,14.70
2009,06,02,06,41,14.70
2009,06,02,06,42,14.80
2009,06,02,06,43,14.80
2009,06,02,06,44,14.80
2009,06,02,06,45,14.80
2009,06,02,06,46,14.90
2009,06,02,06,47,14.90
2009,06,02,06,48,14.90
2009,06,02,06,49,15.00
2009,06,02,06,50,15.00
2009,06,02,06,51,15.00
2009,06,02,06,52,15.00
2009,06,02,06,53,15.00
2009,06,02,06,54,15.00
2009,06,02,06,55,15.00
2009,06,02,06,56,15.00
2009,06,02,06,57,15.00
2009,06,02,06,58,15.00
2009,06,02,06,59,15.10
2009,06,02,07,00,15.10
2009,06,02,07,01,15.20
2009,06,02,07,02,15.20
2009,06,02,07,03,15.30
2009,06,02,07,04,15.40
2009,06,02,07,05,15.50
2009,06,02,07,06,15.60
2009,06,02,07,07,15.60
2009,06,02,07,08,15.70
2009,06,02,07,09,15.70
2009,06,02,07,10,15.80
2009,06,02,07,11,15.80
2009,06,02,07,12,15.90
2009,06,02,07,13,15.90
2009,06,02,07,14,15.90
2009,06,02,07,15,16.00
2009,06,02,07,16,16.10
2009,06,02,07,17,16.10
2009,06,02,07,18,16.20
2009,06,02,07,19,16.30
2009,06,02,07,20,16.40
2009,06,02,07,21,16.50
2009,06,02,07,22,16.60
2009,06,02,07,23,16.70
2009,06,02,07,24,16.80
2009,06,02,07,25,17.00
2009,06,02,07,26,17.10
2009,06,02,07,27,17.10
2009,06,02,07,28,17.20
2009,06,02,07,29,17.20
2009,06,02,07,30,17.20
2009,06,02,07,31,17.30
2009,06,02,07,32,17.30
2009,06,02,07,33,17.30
2009,06,02,07,34,17.30
2009,06,02,07,35,17.40
2009,06,02,07,36,17.40
2009,06,02,07,37,17.40
2009,06,02,07,38,17.50
2009,06,02,07,39,17.60
2009,06,02,07,40,17.60
2009,06,02,07,41,17.60
2009,06,02,07,42,17.60
2009,06,02,07,43,17.70
2009,06,02,07,44,17.70
2009,06,02,07,45,17.70
2009,06,02,07,46,17.80
2009,06,02,07,47,17.80
2009,06,02,07,48,17.90
2009,06,02,07,49,17.90
2009,06,02,07,50,18.00
2009,06,02,07,51,18.10
2009,06,02,07,52,18.10
2009,06,02,07,53,18.20
2009,06,02,07,54,18.30
2009,06,02,07,55,18.30
2009,06,02,07,56,18.40
2009,06,02,07,57,18.50
2009,06,02,07,58,18.60
2009,06,02,07,59,18.60
2009,06,02,08,00,18.70
2009,06,02,08,01,18.70
2009,06,02,08,02,18.80
2009,06,02,08,03,18.80
2009,06,02,08,04,18.80
2009,06,02,08,05,18.80
2009,06,02,08,06,18.80
2009,06,02,08,07,18.80
2009,06,02,08,08,18.80
2009,06,02,08,09,18.80
2009,06,02,08,10,18.90
2009,06,02,08,11,18.90
2009,06,02,08,12,18.90
2009,06,02,08,13,19.00
2009,06,02,08,14,19.10
2009,06,02,08,15,19.10
2009,06,02,08,16,19.20
2009,06,02,08,17,19.20
2009,06,02,08,18,19.30
2009,06,02,08,19,19.40
2009,06,02,08,20,19.40
2009,06,02,08,21,19.50
2009,06,02,08,22,19.50
2009,06,02,08,23,19.60
2009,06,02,08,24,19.60
2009,06,02,08,25,19.70
2009,06,02,08,26,19.70
2009,06,02,08,27,19.70
2009,06,02,08,28,19.80
2009,06,02,08,29,19.80
2009,06,02,08,30,19.80
2009,06,02,08,31,19.90
2009,06,02,08,32,19.90
2009,06,02,08,33,20.00
2009,06,02,08,34,20.00
2009,06,02,08,35,20.10
2009,06,02,08,36,20.10
2009,06,02,08,37,20.20
2009,06,02,08,38,20.20
2009,06,02,08,39,20.20
2009,06,02,08,40,20.30
2009,06,02,08,41,20.30
2009,06,02,08,42,20.30
2009,06,02,08,43,20.40
2009,06,02,08,44,20.40
2009,06,02,08,45,20.50
2009,06,02,08,46,20.50
2009,06,02,08,47,20.50
2009,06,02,08,48,20.50
2009,06,02,08,49,20.60
2009,06,02,08,50,20.60
2009,06,02,08,51,20.60
2009,06,02,08,52,20.70
2009,06,02,08,53,20.70
2009,06,02,08,54,20.70
2009,06,02,08,55,20.70
2009,06,02,08,56,20.70
2009,06,02,08,57,20.70
2009,06,02,08,58,20.70
2009,06,02,08,59,20.70
2009,06,02,09,00,20.80
2009,06,02,09,01,20.80
2009,06,02,09,02,20.90
2009,06,02,09,03,21.00
2009,06,02,09,04,21.00
2009,06,02,09,05,21.10
2009,06,02,09,06,21.10
2009,06,02,09,07,21.20
2009,06,02,09,08,21.20
2009,06,02,09,09,21.30
2009,06,02,09,10,21.30
2009,06,02,09,11,21.30
2009,06,02,09,12,21.40
2009,06,02,09,13,21.40
2009,06,02,09,14,21.40
2009,06,02,09,15,21.40
2009,06,02,09,16,21.50
2009,06,02,09,17,21.50
2009,06,02,09,18,21.50
2009,06,02,09,19,21.50
2009,06,02,09,20,21.50
2009,06,02,09,21,21.40
2009,06,02,09,22,21.40
2009,06,02,09,23,21.40
2009,06,02,09,24,21.40
2009,06,02,09,25,21.40
2009,06,02,09,26,21.40
2009,06,02,09,27,21.40
2009,06,02,09,28,21.30
2009,06,02,09,29,21.30
2009,06,02,09,30,21.30
2009,06,02,09,31,21.30
2009,06,02,09,32,21.30
2009,06,02,09,33,21.30
2009,06,02,09,34,21.30
2009,06,02,09,35,21.30
2009,06,02,09,36,21.30
2009,06,02,09,37,21.30
2009,06,02,09,38,21.30
2009,06,02,09,39,21.30
2009,06,02,09,40,21.40
2009,06,02,09,41,21.40
2009,06,02,09,42,21.40
2009,06,02,09,43,21.50
2009,06,02,09,44,21.50
2009,06,02,09,45,21.60
2009,06,02,09,46,21.60
2009,06,02,09,47,21.60
2009,06,02,09,48,21.60
2009,06,02,09,49,21.60
2009,06,02,09,50,21.70
2009,06,02,09,51,21.70
2009,06,02,09,52,21.80
2009,06,02,09,53,21.80
2009,06,02,09,54,21.80
2009,06,02,09,55,21.90
2009,06,02,09,56,21.90
2009,06,02,09,57,21.90
2009,06,02,09,58,21.90
2009,06,02,09,59,22.00
2009,06,02,10,00,22.00
2009,06,02,10,01,22.10
2009,06,02,10,02,22.10
2009,06,02,10,03,22.10
2009,06,02,10,04,22.20
2009,06,02,10,05,22.20
2009,06,02,10,06,22.30
2009,06,02,10,07,22.30
2009,06,02,10,08,22.40
2009,06,02,10,09,22.40
2009,06,02,10,10,22.50
2009,06,02,10,11,22.50
2009,06,02,10,12,22.60
2009,06,02,10,13,22.60
2009,06,02,10,14,22.70
2009,06,02,10,15,22.70
2009,06,02,10,16,22.80
2009,06,02,10,17,22.90
2009,06,02,10,18,22.90
2009,06,02,10,19,23.00
2009,06,02,10,20,23.10
2009,06,02,10,21,23.30
2009,06,02,10,22,23.40
2009,06,02,10,23,23.60
2009,06,02,10,24,23.70
2009,06,02,10,25,23.80
2009,06,02,10,26,23.90
2009,06,02,10,27,23.90
2009,06,02,10,28,24.00
2009,06,02,10,29,24.10
2009,06,02,10,30,24.10
2009,06,02,10,31,24.10
2009,06,02,10,32,24.20
2009,06,02,10,33,24.20
2009,06,02,10,34,24.30
2009,06,02,10,35,24.40
2009,06,02,10,36,24.40
2009,06,02,10,37,24.50
2009,06,02,10,38,24.50
2009,06,02,10,39,24.50
2009,06,02,10,40,24.60
2009,06,02,10,41,24.70
2009,06,02,10,42,24.70
2009,06,02,10,43,24.80
2009,06,02,10,44,24.80
2009,06,02,10,45,24.80
2009,06,02,10,46,24.80
2009,06,02,10,47,24.80
2009,06,02,10,48,24.80
2009,06,02,10,49,24.80
2009,06,02,10,50,24.80
2009,06,02,10,51,24.80
2009,06,02,10,52,24.90
2009,06,02,10,53,24.90
2009,06,02,10,54,24.90
2009,06,02,10,55,25.00
2009,06,02,10,56,25.10
2009,06,02,10,57,25.10
2009,06,02,10,58,25.10
2009,06,02,10,59,25.20
2009,06,02,11,00,25.20
2009,06,02,11,01,25.30
2009,06,02,11,02,25.40
2009,06,02,11,03,25.40
2009,06,02,11,04,25.40
2009,06,02,11,05,25.50
2009,06,02,11,06,25.60
2009,06,02,11,07,25.60
2009,06,02,11,08,25.70
2009,06,02,11,09,25.70
2009,06,02,11,10,25.80
2009,06,02,11,11,25.80
2009,06,02,11,12,25.70
2009,06,02,11,13,25.60
2009,06,02,11,14,25.60
2009,06,02,11,15,25.60
2009,06,02,11,16,25.60
2009,06,02,11,17,25.70
2009,06,02,11,18,25.70
2009,06,02,11,19,25.70
2009,06,02,11,20,25.80
2009,06,02,11,21,25.80
2009,06,02,11,22,25.90
2009,06,02,11,23,25.90
2009,06,02,11,24,25.90
2009,06,02,11,25,25.90
2009,06,02,11,26,25.90
2009,06,02,11,27,25.90
2009,06,02,11,28,25.90
2009,06,02,11,29,25.90
2009,06,02,11,30,25.90
2009,06,02,11,31,25.90
2009,06,02,11,32,25.90
2009,06,02,11,33,25.90
2009,06,02,11,34,25.90
2009,06,02,11,35,25.90
2009,06,02,11,36,25.90
2009,06,02,11,37,25.90
2009,06,02,11,38,25.90
2009,06,02,11,39,25.80
2009,06,02,11,40,25.70
2009,06,02,11,41,25.70
2009,06,02,11,42,25.70
2009,06,02,11,43,25.70
2009,06,02,11,44,25.70
2009,06,02,11,45,25.70
2009,06,02,11,46,25.70
2009,06,02,11,47,25.70
2009,06,02,11,48,25.80
2009,06,02,11,49,25.80
2009,06,02,11,50,25.80
2009,06,02,11,51,25.80
2009,06,02,11,52,25.90
2009,06,02,11,53,25.90
2009,06,02,11,54,25.90
2009,06,02,11,55,25.90
2009,06,02,11,56,25.90
2009,06,02,11,57,25.90
2009,06,02,11,58,26.00
2009,06,02,11,59,26.10
2009,06,02,12,00,26.10
2009,06,02,12,01,26.20
2009,06,02,12,02,26.30
2009,06,02,12,03,26.50
2009,06,02,12,04,26.60
2009,06,02,12,05,26.70
2009,06,02,12,06,26.80
2009,06,02,12,07,26.80
2009,06,02,12,08,26.90
2009,06,02,12,09,26.90
2009,06,02,12,10,26.90
2009,06,02,12,11,27.00
2009,06,02,12,12,27.10
2009,06,02,12,13,27.10
2009,06,02,12,14,27.10
2009,06,02,12,15,27.10
2009,06,02,12,16,27.10
2009,06,02,12,17,27.10
2009,06,02,12,18,27.00
2009,06,02,12,19,26.90
2009,06,02,12,20,26.80
2009,06,02,12,21,26.80
2009,06,02,12,22,26.80
2009,06,02,12,23,26.80
2009,06,02,12,24,26.80
2009,06,02,12,25,26.70
2009,06,02,12,26,26.70
2009,06,02,12,27,26.60
2009,06,02,12,28,26.50
2009,06,02,12,29,26.50
2009,06,02,12,30,26.60
2009,06,02,12,31,26.60
2009,06,02,12,32,26.70
2009,06,02,12,33,26.80
2009,06,02,12,34,26.90
2009,06,02,12,35,27.00
2009,06,02,12,36,27.10
2009,06,02,12,37,27.20
2009,06,02,12,38,27.10
2009,06,02,12,39,27.10
2009,06,02,12,40,27.10
2009,06,02,12,41,27.10
2009,06,02,12,42,27.10
2009,06,02,12,43,27.20
2009,06,02,12,44,27.20
2009,06,02,12,45,27.20
2009,06,02,12,46,27.30
2009,06,02,12,47,27.40
2009,06,02,12,48,27.50
2009,06,02,12,49,27.60
2009,06,02,12,50,27.70
2009,06,02,12,51,27.70
2009,06,02,12,52,27.80
2009,06,02,12,53,27.80
2009,06,02,12,54,27.80
2009,06,02,12,55,27.90
2009,06,02,12,56,27.90
2009,06,02,12,57,27.90
2009,06,02,12,58,28.00
2009,06,02,12,59,28.00
2009,06,02,13,00,27.90
2009,06,02,13,01,27.90
2009,06,02,13,02,27.90
2009,06,02,13,03,27.90
2009,06,02,13,04,27.90
2009,06,02,13,05,27.80
2009,06,02,13,06,27.80
2009,06,02,13,07,27.80
2009,06,02,13,08,27.80
2009,06,02,13,09,27.90
2009,06,02,13,10,27.90
2009,06,02,13,11,28.00
2009,06,02,13,12,28.00
2009,06,02,13,13,28.10
2009,06,02,13,14,28.10
2009,06,02,13,15,28.20
2009,06,02,13,16,28.20
2009,06,02,13,17,28.30
2009,06,02,13,18,28.30
2009,06,02,13,19,28.40
2009,06,02,13,20,28.50
2009,06,02,13,21,28.50
2009,06,02,13,22,28.60
2009,06,02,13,23,28.50
2009,06,02,13,24,28.50
2009,06,02,13,25,28.40
2009,06,02,13,26,28.30
2009,06,02,13,27,28.30
2009,06,02,13,28,28.40
2009,06,02,13,29,28.40
2009,06,02,13,30,28.50
2009,06,02,13,31,28.60
2009,06,02,13,32,28.70
2009,06,02,13,33,28.70
2009,06,02,13,34,28.70
2009,06,02,13,35,28.60
2009,06,02,13,36,28.50
2009,06,02,13,37,28.30
2009,06,02,13,38,28.20
2009,06,02,13,39,28.20
2009,06,02,13,40,28.20
2009,06,02,13,41,28.20
2009,06,02,13,42,28.20
2009,06,02,13,43,28.20
2009,06,02,13,44,28.30
2009,06,02,13,45,28.40
2009,06,02,13,46,28.50
2009,06,02,13,47,28.60
2009,06,02,13,48,28.70
2009,06,02,13,49,28.80
2009,06,02,13,50,28.80
2009,06,02,13,51,28.90
2009,06,02,13,52,28.90
2009,06,02,13,53,28.90
2009,06,02,13,54,28.80
2009,06,02,13,55,28.70
2009,06,02,13,56,28.60
2009,06,02,13,57,28.60
2009,06,02,13,58,28.50
2009,06,02,13,59,28.50
2009,06,02,14,00,28.50
2009,06,02,14,01,28.50
2009,06,02,14,02,28.40
2009,06,02,14,03,28.40
2009,06,02,14,04,28.40
2009,06,02,14,05,28.50
2009,06,02,14,06,28.60
2009,06,02,14,07,28.60
2009,06,02,14,08,28.70
2009,06,02,14,09,28.80
2009,06,02,14,10,28.90
2009,06,02,14,11,28.90
2009,06,02,14,12,28.90
2009,06,02,14,13,28.90
2009,06,02,14,14,28.80
2009,06,02,14,15,28.70
2009,06,02,14,16,28.70
2009,06,02,14,17,28.60
2009,06,02,14,18,28.60
2009,06,02,14,19,28.70
2009,06,02,14,20,28.80
2009,06,02,14,21,28.80
2009,06,02,14,22,29.00
2009,06,02,14,23,29.10
2009,06,02,14,24,29.20
2009,06,02,14,25,29.30
2009,06,02,14,26,29.40
2009,06,02,14,27,29.50
2009,06,02,14,28,29.60
2009,06,02,14,29,29.80
2009,06,02,14,30,29.80
2009,06,02,14,31,29.90
2009,06,02,14,32,29.90
2009,06,02,14,33,30.00
2009,06,02,14,34,29.90
2009,06,02,14,35,29.70
2009,06,02,14,36,29.60
2009,06,02,14,37,29.50
2009,06,02,14,38,29.40
2009,06,02,14,39,29.30
2009,06,02,14,40,29.30
2009,06,02,14,41,29.30
2009,06,02,14,42,29.40
2009,06,02,14,43,29.50
2009,06,02,14,44,29.70
2009,06,02,14,45,29.80
2009,06,02,14,46,29.90
2009,06,02,14,47,30.00
2009,06,02,14,48,30.10
2009,06,02,14,49,30.20
2009,06,02,14,50,30.20
2009,06,02,14,51,30.10
2009,06,02,14,52,29.90
2009,06,02,14,53,29.80
2009,06,02,14,54,29.80
2009,06,02,14,55,29.70
2009,06,02,14,56,29.60
2009,06,02,14,57,29.70
2009,06,02,14,58,29.70
2009,06,02,14,59,29.70
2009,06,02,15,00,29.70
2009,06,02,15,01,29.80
2009,06,02,15,02,29.80
2009,06,02,15,03,29.80
2009,06,02,15,04,29.80
2009,06,02,15,05,29.80
2009,06,02,15,06,29.90
2009,06,02,15,07,30.00
2009,06,02,15,08,30.10
2009,06,02,15,09,30.10
2009,06,02,15,10,30.10
2009,06,02,15,11,30.20
2009,06,02,15,12,30.30
2009,06,02,15,13,30.40
2009,06,02,15,14,30.60
2009,06,02,15,15,30.60
2009,06,02,15,16,30.70
2009,06,02,15,17,30.70
2009,06,02,15,18,30.50
2009,06,02,15,19,30.40
2009,06,02,15,20,30.30
2009,06,02,15,21,30.20
2009,06,02,15,22,30.20
2009,06,02,15,23,30.10
2009,06,02,15,24,30.10
2009,06,02,15,25,30.10
2009,06,02,15,26,30.20
2009,06,02,15,27,30.30
2009,06,02,15,28,30.40
2009,06,02,15,29,30.50
2009,06,02,15,30,30.60
2009,06,02,15,31,30.80
2009,06,02,15,32,30.90
2009,06,02,15,33,31.10
2009,06,02,15,34,31.20
2009,06,02,15,35,31.30
2009,06,02,15,36,31.50
2009,06,02,15,37,31.60
2009,06,02,15,38,31.60
2009,06,02,15,39,31.70
2009,06,02,15,40,31.70
2009,06,02,15,41,31.70
2009,06,02,15,42,31.70
2009,06,02,15,43,31.70
2009,06,02,15,44,31.70
2009,06,02,15,45,31.70
2009,06,02,15,46,31.70
2009,06,02,15,47,31.60
2009,06,02,15,48,31.40
2009,06,02,15,49,31.30
2009,06,02,15,50,31.30
2009,06,02,15,51,31.20
2009,06,02,15,52,31.20
2009,06,02,15,53,31.20
2009,06,02,15,54,31.20
2009,06,02,15,55,31.20
2009,06,02,15,56,31.30
2009,06,02,15,57,31.30
2009,06,02,15,58,31.30
2009,06,02,15,59,31.20
2009,06,02,16,00,31.10
2009,06,02,16,01,31.10
2009,06,02,16,02,31.00
2009,06,02,16,03,31.00
2009,06,02,16,04,31.00
2009,06,02,16,05,31.00
2009,06,02,16,06,31.00
2009,06,02,16,07,31.00
2009,06,02,16,08,31.00
2009,06,02,16,09,31.00
2009,06,02,16,10,31.10
2009,06,02,16,11,31.10
2009,06,02,16,12,31.20
2009,06,02,16,13,31.20
2009,06,02,16,14,31.30
2009,06,02,16,15,31.40
2009,06,02,16,16,31.50
2009,06,02,16,17,31.50
2009,06,02,16,18,31.60
2009,06,02,16,19,31.50
2009,06,02,16,20,31.40
2009,06,02,16,21,31.30
2009,06,02,16,22,31.30
2009,06,02,16,23,31.20
2009,06,02,16,24,31.20
2009,06,02,16,25,31.10
2009,06,02,16,26,31.00
2009,06,02,16,27,30.90
2009,06,02,16,28,30.80
2009,06,02,16,29,30.80
2009,06,02,16,30,30.80
2009,06,02,16,31,30.80
2009,06,02,16,32,30.80
2009,06,02,16,33,30.80
2009,06,02,16,34,30.90
2009,06,02,16,35,31.00
2009,06,02,16,36,31.10
2009,06,02,16,37,31.20
2009,06,02,16,38,31.30
2009,06,02,16,39,31.30
2009,06,02,16,40,31.40
2009,06,02,16,41,31.50
2009,06,02,16,42,31.60
2009,06,02,16,43,31.60
2009,06,02,16,44,31.60
2009,06,02,16,45,31.50
2009,06,02,16,46,31.50
2009,06,02,16,47,31.40
2009,06,02,16,48,31.30
2009,06,02,16,49,31.30
2009,06,02,16,50,31.30
2009,06,02,16,51,31.30
2009,06,02,16,52,31.30
2009,06,02,16,53,31.30
2009,06,02,16,54,31.30
2009,06,02,16,55,31.30
2009,06,02,16,56,31.20
2009,06,02,16,57,31.20
2009,06,02,16,58,31.20
2009,06,02,16,59,31.20
2009,06,02,17,00,31.20
2009,06,02,17,01,31.20
2009,06,02,17,02,31.30
2009,06,02,17,03,31.30
2009,06,02,17,04,31.30
2009,06,02,17,05,31.30
2009,06,02,17,06,31.40
2009,06,02,17,07,31.40
2009,06,02,17,08,31.50
2009,06,02,17,09,31.50
2009,06,02,17,10,31.40
2009,06,02,17,11,31.40
2009,06,02,17,12,31.30
2009,06,02,17,13,31.30
2009,06,02,17,14,31.30
2009,06,02,17,15,31.20
2009,06,02,17,16,31.20
2009,06,02,17,17,31.20
2009,06,02,17,18,31.10
2009,06,02,17,19,31.10